Location: Sungai Bunut
(2.6333°N, 113.7333°E)
Time: 14:30:43
(UTC+00:00)

Altair - Pass Details

Date: 04 December 2023
Orbit: 1501 x 1682 km, 47.2° (Epoch: 24 February)

Event Time Altitude Azimuth Distance (km) Brightness Sun altitude
Rises 10:06:38 0° 312° (NW) 4,624 10.4 1.0°
Reaches altitude 10° 10:09:40 10° 308° (NW) 3,650 9.9 0.3°
Maximum altitude 10:18:38 60° 231° (SW) 1,717 8.3 -1.8°
Drops below altitude 10° 10:27:55 10° 153° (SSE) 3,756 9.5 -4.0°
Sets 10:31:07 0° 149° (SSE) 4,766 10.0 -4.7°
